Dewpoint
-2 -2 -2 -2 -3 -3 -2 -5 -5 -5 -5 -8 -8 -8 -9 -6 -6 -7 -6 -5 -5 -4 -4 -6 -6 -6 -5 -5 -5 -6 -5 -5 -4 -3 -2 -5 -4 -2 0 1 2 2 2 2 2 2 2 -2 -2 0 -0 -2 -3 -4
-2 -2 -4 -3 -3 -2 -3 -6 -6 -6 -5 -9 -9 -8 -8 -8 -5 -7 -8 -6 -5 -7 -4 -6 -7 -6 -6 -6 -6 -6 -5 -3 -4 -5 -5 -4 -2 -1 -0 2 1 1 0 1 0 -0 -1 -2 -2 -2 -2 -2 -3 -4
-3 -3 -4 -3 -3 -4 -7 -5 -4 -7 -6 -6 -9 -10 -11 -11 -4 -6 -5 -8 -9 -4 -4 -4 -5 -8 -11 -10 -9 -5 -3 -3 -4 -4 -4 -4 -2 -2 0 1 0 -2 -1 0 -0 -2 -2 -2 -3 -4 -4 -4 -5 -5
-3 -4 -2 -3 -2 -5 -6 -6 -4 -5 -7 -5 -6 -10 -12 -11 -4 -4 -5 -5 -5 -4 -4 -3 -4 -5 -5 -5 -6 -7 -5 -4 -5 -5 -5 -5 -3 -3 -1 1 -1 -3 -3 -1 -1 -2 -3 -4 -4 -4 -5 -5 -5 -5
-3 -3 -2 -3 -3 -5 -6 -5 -4 -6 -7 -4 -8 -8 -6 -6 -6 -5 -4 -4 -4 -4 -4 -5 -4 -5 -6 -7 -5 -5 -5 -5 -5 -5 -5 -5 -4 -2 -1 -2 -2 -3 -2 -2 -3 -3 -3 -4 -4 -4 -4 -5 -6 -6
-2 -2 -2 -2 -4 -5 -6 -5 -6 -7 -6 -5 -8 -6 -7 -8 -7 -8 -8 -6 -5 -5 -5 -6 -5 -5 -6 -5 -4 -4 -5 -5 -5 -5 -4 -4 -5 -3 -2 -3 -3 -3 -3 -3 -3 -4 -4 -4 -5 -5 -6 -6 -7 -7
-3 -4 -3 -4 -6 -7 -6 -5 -6 -6 -5 -6 -8 -7 -8 -10 -10 -6 -4 -3 -4 -4 -6 -6 -4 -5 -5 -5 -5 -4 -4 -3 -4 -5 -4 -4 -5 -2 -2 -1 -3 -4 -3 -3 -3 -4 -4 -4 -5 -6 -6 -7 -7 -7
-4 -3 -3 -4 -5 -7 -7 -6 -6 -5 -6 -5 -6 -8 -10 -10 -4 -4 -3 -3 -3 -5 -4 -6 -5 -4 -4 -5 -4 -3 -3 -2 -3 -5 -4 -3 -3 -2 -2 -2 -4 -4 -4 -4 -4 -4 -5 -5 -5 -6 -7 -8 -8 -8
-5 -4 -4 -3 -4 -7 -8 -9 -7 -6 -5 -5 -8 -9 -9 -10 -7 -5 -4 -5 -5 -5 -4 -4 -6 -6 -3 -3 -4 -2 -2 -5 -5 -5 -3 -2 -4 -2 -3 -3 -4 -4 -3 -4 -3 -4 -5 -6 -5 -6 -7 -8 -9 -9
-7 -7 -7 -5 -3 -8 -7 -8 -6 -5 -5 -6 -8 -13 -7 -8 -6 -6 -4 -3 -3 -4 -4 -5 -4 -5 -3 -3 -4 -3 -3 -4 -3 -3 -3 -4 -3 -3 -4 -4 -4 -4 -4 -4 -4 -5 -6 -6 -7 -7 -8 -8 -9 -10
-10 -10 -8 -4 -6 -7 -6 -5 -4 -4 -5 -8 -13 -5 -3 -4 -3 -3 -4 -5 -5 -4 -4 -4 -4 -5 -3 -5 -5 -3 -2 -1 -0 -2 -1 -2 -2 -4 -5 -5 -5 -5 -5 -5 -5 -5 -5 -6 -8 -8 -9 -9 -10 -10
-10 -10 -9 -4 -8 -6 -5 -5 -4 -6 -8 -12 -7 -3 -4 -4 -4 -4 -4 -4 -3 -4 -4 -4 -4 -5 -5 -3 -4 -2 -2 -2 -0 -2 -2 -4 -5 -6 -6 -6 -6 -7 -7 -7 -7 -7 -7 -8 -8 -9 -10 -10 -11 -11
-9 -8 -6 -4 -7 -6 -6 -5 -5 -7 -12 -5 -3 -3 -4 -4 -3 -5 -6 -5 -6 -6 -5 -4 -3 -5 -4 -3 -3 -1 -0 -2 -1 -3 -2 -5 -6 -6 -7 -7 -8 -8 -8 -8 -9 -9 -9 -9 -10 -11 -11 -11 -11 -11
-8 -6 -4 -4 -6 -7 -7 -5 -5 -7 -10 -8 -3 -4 -5 -6 -8 -7 -6 -7 -3 -2 -4 -4 -3 -3 -2 -4 -6 -2 -4 -0 -1 -2 -3 -6 -6 -7 -8 -8 -9 -9 -10 -10 -10 -10 -10 -11 -11 -12 -12 -12 -12 -14
-7 -4 -4 -6 -7 -7 -5 -5 -5 -6 -9 -4 -3 -5 -7 -4 -4 -3 -3 -3 -3 -2 -3 -4 -4 -3 -5 -4 -2 -3 -1 -1 -1 -2 -7 -6 -6 -7 -8 -9 -10 -10 -11 -11 -11 -11 -11 -12 -12 -12 -13 -19 -24 -25
-5 -4 -4 -5 -6 -7 -5 -5 -5 -6 -8 -5 -3 -3 -3 -4 -3 -4 -4 -4 -4 -3 -2 -2 -3 -3 -2 -3 -1 -1 -0 -1 -6 -8 -7 -7 -7 -8 -9 -9 -10 -11 -11 -11 -12 -12 -12 -13 -17 -20 -21 -21 -21 -20
-5 -5 -6 -6 -6 -6 -6 -5 -6 -8 -7 -3 -5 -5 -4 -5 -3 -6 -5 -4 -4 -3 -3 -3 -2 -3 -2 -3 -2 -3 -3 -9 -7 -7 -7 -7 -8 -9 -10 -11 -11 -11 -12 -12 -12 -15 -18 -15 -14 -15 -16 -17 -16 -14
-7 -7 -7 -6 -5 -5 -5 -6 -7 -7 -4 -4 -5 -4 -5 -6 -5 -4 -5 -3 -4 -3 -2 -1 -2 -2 -6 -3 -3 -5 -6 -6 -6 -7 -8 -8 -9 -10 -11 -11 -12 -12 -12 -12 -15 -16 -13 -12 -12 -12 -13 -13 -13 -13
-8 -6 -6 -6 -6 -7 -9 -7 -4 -4 -4 -5 -5 -5 -6 -6 -5 -4 -5 -5 -5 -2 -2 -3 -4 -4 -2 -3 -5 -5 -6 -7 -7 -8 -8 -9 -10 -11 -11 -11 -11 -12 -12 -15 -14 -12 -12 -11 -11 -12 -12 -12 -13 -12
-8 -8 -6 -5 -8 -6 -4 -4 -4 -4 -5 -5 -5 -6 -6 -5 -6 -6 -6 -5 -4 -3 -3 -5 -5 -3 -3 -4 -4 -5 -6 -7 -8 -9 -10 -10 -11 -11 -11 -11 -12 -12 -13 -11 -11 -12 -13 -12 -13 -13 -13 -14 -15 -14
-5 -5 -5 -8 -6 -4 -3 -4 -4 -3 -5 -6 -5 -5 -5 -6 -6 -5 -5 -4 -3 -3 -3 -3 -4 -4 -5 -5 -5 -6 -7 -8 -9 -10 -11 -11 -11 -11 -11 -11 -12 -12 -12 -11 -11 -12 -12 -12 -11 -12 -13 -14 -17 -16
-4 -5 -5 -6 -5 -5 -5 -5 -5 -5 -5 -5 -6 -5 -5 -5 -5 -5 -4 -3 -3 -3 -4 -4 -4 -5 -5 -6 -6 -7 -7 -8 -9 -10 -11 -11 -11 -11 -11 -11 -11 -11 -11 -11 -11 -11 -12 -12 -12 -12 -13 -15 -18 -18
-6 -6 -6 -6 -4 -4 -6 -5 -6 -6 -6 -5 -4 -4 -4 -4 -4 -5 -4 -5 -4 -5 -5 -5 -5 -6 -6 -6 -7 -7 -8 -9 -9 -10 -11 -11 -11 -11 -10 -11 -11 -10 -10 -10 -11 -11 -11 -11 -12 -13 -15 -17 -18 -17
-6 -6 -5 -4 -4 -5 -5 -6 -6 -5 -4 -4 -4 -4 -4 -4 -6 -6 -7 -5 -6 -6 -6 -6 -6 -7 -7 -7 -7 -8 -7 -7 -8 -10 -11 -11 -10 -9 -10 -10 -10 -10 -10 -11 -11 -12 -12 -13 -16 -17 -17 -18 -17 -16
-6 -4 -4 -5 -5 -5 -6 -5 -5 -6 -6 -5 -4 -5 -6 -6 -8 -7 -7 -7 -6 -6 -6 -7 -7 -7 -8 -8 -7 -8 -8 -8 -10 -11 -10 -10 -10 -10 -10 -10 -10 -11 -11 -12 -12 -12 -15 -15 -16 -16 -15 -15 -16 -16
-3 -5 -5 -6 -5 -5 -6 -5 -5 -5 -5 -5 -5 -5 -7 -9 -7 -7 -7 -7 -7 -7 -7 -7 -7 -7 -8 -8 -8 -8 -8 -9 -11 -9 -9 -9 -10 -11 -11 -11 -11 -12 -14 -19 -20 -19 -17 -16 -15 -15 -16 -19 -22 -21
-7 -7 -5 -5 -5 -5 -5 -7 -7 -5 -5 -5 -5 -7 -6 -6 -7 -9 -7 -7 -7 -8 -8 -8 -8 -8 -9 -9 -8 -8 -9 -9 -9 -10 -10 -10 -10 -11 -12 -13 -14 -15 -14 -14 -17 -22 -25 -24 -23 -23 -25 -26 -24 -22
-5 -6 -8 -6 -6 -5 -6 -6 -8 -7 -6 -6 -7 -7 -9 -9 -10 -8 -8 -8 -8 -9 -9 -8 -8 -8 -8 -8 -9 -9 -9 -9 -9 -10 -11 -10 -10 -11 -11 -11 -12 -12 -13 -19 -26 -30 -31 -31 -31 -31 -30 -28 -27 -24
-7 -6 -7 -7 -7 -6 -7 -6 -7 -7 -7 -6 -9 -11 -10 -9 -9 -10 -9 -9 -8 -9 -9 -8 -8 -8 -8 -8 -9 -9 -9 -10 -10 -11 -11 -11 -12 -12 -12 -13 -14 -19 -25 -29 -31 -31 -31 -29 -28 -27 -24 -23 -23 -22
-6 -6 -8 -8 -11 -10 -7 -7 -7 -7 -8 -7 -8 -8 -9 -10 -11 -11 -10 -10 -9 -9 -9 -9 -9 -8 -9 -9 -10 -10 -10 -10 -10 -10 -11 -14 -18 -23 -26 -27 -27 -28 -31 -32 -32 -29 -27 -26 -25 -25 -25 -24 -25 -25
-7 -7 -9 -9 -11 -9 -9 -9 -9 -9 -10 -9 -9 -9 -10 -11 -12 -12 -12 -10 -10 -9 -9 -9 -9 -9 -9 -9 -10 -10 -11 -11 -11 -12 -17 -18 -21 -24 -29 -30 -31 -33 -33 -29 -28 -26 -25 -25 -26 -26 -26 -27 -27 -27
-8 -7 -8 -12 -12 -11 -11 -11 -11 -11 -11 -11 -11 -10 -11 -11 -13 -12 -13 -12 -11 -11 -11 -10 -10 -10 -10 -10 -10 -11 -11 -11 -11 -17 -17 -17 -22 -29 -31 -32 -33 -30 -28 -26 -25 -26 -27 -27 -27 -28 -28 -27 -25 -24
-9 -9 -10 -11 -12 -12 -12 -10 -11 -10 -10 -11 -11 -10 -11 -12 -12 -12 -12 -12 -11 -11 -11 -11 -11 -11 -11 -11 -11 -12 -12 -12 -15 -18 -24 -28 -30 -32 -33 -31 -29 -26 -26 -27 -27 -27 -28 -28 -27 -26 -25 -24 -25 -26
Wind_Speed
22 21 20 21 21 21 16 16 15 14 14 13 13 12 11 10 6 5 8 7 9 6 9 10 11 10 8 6 3 2 3 6 4 4 2 2 1 3 3 3 7 2 3 3 4 1 2 24 7 6 4 11 11 15
21 19 16 20 22 19 21 18 17 15 16 14 14 12 11 11 7 7 9 8 12 7 7 6 4 5 4 5 5 3 3 2 2 3 1 1 2 3 4 3 6 4 5 2 5 3 5 11 11 12 12 13 12 14
22 17 19 23 22 23 21 18 17 15 17 14 13 11 9 11 8 9 14 12 11 10 10 8 6 6 4 2 5 5 4 3 3 1 4 2 1 1 2 3 3 7 12 2 2 4 9 15 13 14 13 14 14 13
23 22 28 22 24 25 19 17 17 16 17 13 13 10 11 13 11 10 10 10 9 6 4 3 7 3 3 4 6 5 6 4 1 2 2 2 1 2 1 2 2 4 9 5 3 6 8 13 13 10 12 14 15 15
29 26 24 25 30 24 19 18 18 16 18 15 14 14 12 11 11 9 9 8 8 5 3 1 3 3 5 3 5 3 2 4 1 1 2 2 3 0 1 2 2 6 3 3 1 7 7 6 6 10 12 13 12 14
27 26 27 23 28 22 20 22 18 19 16 15 16 14 11 9 8 6 3 3 3 4 2 1 1 1 9 8 6 6 5 3 2 1 3 4 5 1 2 2 2 2 5 7 2 9 12 10 10 11 13 13 12 13
24 23 26 30 26 22 21 20 21 21 17 17 14 12 9 8 8 6 4 3 5 2 2 3 4 2 7 11 8 6 10 5 3 2 3 3 4 4 2 2 7 3 0 1 2 9 7 2 7 12 13 11 10 12
22 23 23 29 25 21 20 20 22 20 18 16 14 11 9 10 12 11 11 10 8 1 4 2 3 1 4 4 3 5 6 7 4 3 3 4 3 4 2 10 10 8 6 5 6 6 12 11 11 13 9 7 8 10
23 24 23 24 24 20 17 21 25 22 19 16 13 11 10 7 5 6 6 6 3 2 2 0 2 3 5 3 3 4 4 1 4 2 4 3 1 1 4 15 11 7 5 8 9 11 14 15 13 15 8 5 5 8
23 22 22 20 24 20 22 26 26 23 20 18 14 4 4 7 5 7 3 2 2 1 2 3 4 2 5 5 2 2 3 2 1 5 4 2 2 6 8 9 8 6 7 10 12 12 13 11 10 10 7 6 5 6
22 23 22 24 25 27 28 26 25 23 22 15 5 3 9 12 5 2 2 1 1 2 5 6 10 2 5 3 3 5 2 2 2 2 3 2 3 4 11 10 7 6 5 7 11 9 9 7 8 8 8 7 6 5
21 21 22 27 29 30 29 27 26 25 13 8 8 14 14 4 2 3 3 1 3 3 6 5 7 12 3 4 2 0 2 2 3 3 2 1 1 16 14 12 9 6 6 8 7 8 10 8 6 5 5 6 5 6
20 20 26 32 29 30 28 25 23 18 14 12 4 5 4 4 3 4 4 3 0 3 5 5 2 7 4 4 2 1 2 3 4 1 2 1 12 15 13 11 9 6 6 7 8 8 7 7 6 5 9 10 9 8
20 21 31 38 30 29 28 26 22 16 11 2 3 4 3 2 3 4 3 3 1 1 8 11 4 2 2 3 1 1 3 2 2 3 2 2 16 17 14 11 9 8 6 7 8 8 8 9 12 13 12 12 9 8
23 27 33 32 29 29 28 25 18 13 4 1 3 3 4 2 3 4 2 3 3 2 4 6 4 1 0 1 2 2 2 3 2 1 2 14 19 17 14 11 7 7 7 9 11 12 13 13 12 12 11 9 7 5
25 28 29 30 27 27 28 23 16 6 1 2 3 1 1 5 3 2 3 3 3 7 4 4 2 2 3 3 2 3 2 1 2 3 13 20 18 16 13 9 8 9 11 14 15 15 14 13 11 9 8 7 5 5
25 25 30 26 26 27 26 18 7 3 2 3 1 3 1 2 1 5 6 5 5 6 1 2 3 6 3 0 1 0 2 3 9 13 16 15 15 13 11 11 13 14 15 15 16 14 13 12 10 8 7 5 5 5
22 30 30 32 33 30 21 8 4 4 4 3 1 3 4 1 2 3 6 7 6 4 2 2 4 1 3 3 2 3 4 10 9 11 13 12 12 13 13 16 15 15 15 15 13 13 10 8 6 5 5 4 2 2
29 30 26 27 28 18 6 7 5 4 4 3 4 4 3 2 7 4 6 8 8 4 4 2 1 2 2 2 3 10 15 13 16 15 12 11 11 14 15 15 15 15 15 14 12 10 5 4 2 1 2 4 7 6
27 27 24 27 23 5 4 3 5 3 4 5 4 6 3 1 3 7 8 8 8 3 2 2 3 4 4 5 7 9 13 14 17 19 16 13 14 17 18 17 16 14 14 12 9 7 6 6 5 5 5 7 10 10
28 26 26 25 12 3 3 5 4 2 6 3 4 6 2 2 2 3 5 9 6 4 4 5 5 6 4 4 5 7 12 14 15 13 19 23 20 19 17 15 13 15 12 10 7 8 8 7 8 8 9 11 9 9
23 26 16 18 3 1 1 3 3 6 4 4 7 4 2 2 2 4 4 7 5 6 5 6 11 10 10 9 8 6 8 11 8 9 14 19 23 22 21 17 16 14 10 9 8 9 8 8 9 10 12 12 10 10
26 17 6 6 4 3 2 10 3 6 3 6 4 2 2 3 3 6 3 5 5 8 10 10 10 9 10 11 10 10 11 12 12 12 16 20 19 19 16 13 13 10 9 11 8 7 8 9 11 12 12 11 9 9
19 9 5 5 8 4 4 4 3 4 4 3 2 2 3 4 5 2 3 4 5 10 11 11 13 14 13 13 13 14 14 12 11 11 17 21 19 14 15 13 12 13 12 10 9 10 10 10 10 9 9 8 10 11
6 7 4 2 4 4 4 2 2 3 3 3 3 1 2 5 2 3 3 4 10 12 12 12 13 13 16 16 15 14 12 13 16 22 19 18 19 18 16 14 12 10 10 11 11 12 11 10 10 10 10 11 13 13
5 7 6 9 5 4 4 4 4 4 3 2 3 4 4 2 2 5 2 7 13 14 15 16 16 16 13 16 19 18 16 13 17 19 19 18 16 14 14 14 13 11 10 9 9 9 10 11 11 11 12 12 10 10
4 4 5 6 5 5 2 4 7 3 3 4 3 3 3 3 5 3 5 8 10 9 10 12 14 14 17 18 17 18 17 16 16 16 16 15 14 12 10 9 7 6 6 6 7 8 10 11 11 11 10 9 10 11
4 9 6 9 4 5 3 3 4 5 3 6 9 4 5 6 4 5 6 6 7 7 9 12 15 15 14 17 18 19 19 17 17 16 15 16 14 13 12 12 12 9 8 8 7 7 5 5 6 6 7 8 10 10
4 10 11 3 3 3 7 5 6 6 6 8 4 3 4 4 6 8 8 9 11 9 11 15 15 14 19 21 18 17 17 20 19 19 17 16 15 13 13 11 10 9 8 6 4 3 3 3 4 5 6 7 8 10
7 15 5 4 5 5 5 6 5 6 7 7 6 4 4 5 8 8 11 11 13 13 10 13 16 19 22 22 21 21 20 18 15 13 13 14 12 11 11 10 8 6 5 3 2 2 2 3 5 6 8 10 11 12
10 10 5 4 3 3 5 7 5 6 7 7 7 6 5 4 6 11 14 16 14 14 15 18 20 21 22 21 20 20 21 20 18 14 12 8 9 9 8 7 6 5 3 1 1 2 4 5 6 8 9 11 12 14
7 7 7 3 2 6 5 4 3 4 5 5 5 7 6 5 5 7 13 21 20 17 16 17 20 21 18 16 15 16 16 14 14 12 9 8 8 8 8 7 6 5 3 1 0 2 4 6 7 9 11 12 14 16
2 4 5 5 4 4 6 5 6 3 5 4 6 9 12 6 6 8 12 17 19 23 20 17 16 17 16 15 16 17 13 12 12 11 10 9 8 8 8 7 5 4 2 1 2 4 6 7 9 11 13 14 15 16
Wind_Direction
161 165 177 171 173 179 183 163 162 167 163 156 156 154 158 154 134 162 118 113 120 95 67 82 88 91 89 79 114 332 63 10 32 52 55 276 21 302 295 246 327 43 271 186 207 177 271 360 357 41 42 78 81 78
170 170 174 173 173 172 157 167 162 158 158 154 152 152 155 160 138 136 126 118 110 99 122 116 110 109 115 122 132 65 116 121 122 81 8 7 340 330 305 358 347 40 350 25 28 72 38 34 45 50 65 83 90 98
180 180 180 174 170 168 169 167 163 158 159 154 152 157 167 159 136 122 111 119 122 99 91 83 106 118 148 146 179 121 89 104 101 69 173 225 279 22 319 38 316 357 10 40 145 50 52 45 55 55 66 82 91 99
174 172 168 170 168 165 169 171 166 162 163 154 157 153 152 151 136 121 109 87 94 92 98 102 133 123 109 112 95 110 134 132 120 290 218 163 197 216 276 81 58 339 322 345 87 135 116 50 49 66 75 85 91 92
176 174 167 165 168 168 168 164 161 161 161 156 151 144 141 142 151 129 97 99 76 83 152 321 177 165 180 146 138 129 95 131 117 19 65 244 252 163 57 72 29 347 349 347 18 337 101 67 59 76 84 74 77 90
159 163 173 169 156 162 163 163 160 157 152 156 151 147 146 150 147 141 107 105 124 60 72 48 312 237 191 162 161 182 193 188 156 189 254 266 267 219 90 107 179 58 50 55 92 83 106 102 84 85 89 87 89 92
155 151 155 153 159 157 162 162 152 152 154 152 152 147 153 161 157 96 105 111 146 104 48 11 349 91 194 183 198 198 198 211 213 231 242 249 276 179 120 143 153 134 70 352 126 127 94 152 117 100 108 101 89 89
154 157 159 157 161 159 160 163 161 155 152 155 150 146 149 148 126 105 95 121 130 79 74 79 278 357 178 172 152 186 156 185 227 236 257 239 265 179 108 130 140 139 121 108 115 127 113 107 122 125 139 118 108 102
153 157 161 161 163 162 168 165 163 156 154 150 150 139 129 145 129 139 141 157 236 80 119 161 143 233 168 133 154 168 178 90 206 201 239 189 327 85 173 153 152 168 200 173 135 119 132 123 127 145 159 139 115 111
154 155 156 166 173 161 154 153 155 158 157 154 145 135 116 144 147 152 158 55 52 60 145 227 259 275 166 165 178 161 194 215 193 229 190 106 91 98 113 125 133 157 183 175 156 139 152 141 141 145 149 143 123 118
158 161 160 158 161 159 152 153 156 159 160 151 145 92 116 138 120 129 120 142 172 226 211 227 215 200 200 119 206 206 187 243 241 268 149 171 159 128 134 125 135 146 141 133 158 157 169 157 147 143 144 145 145 137
166 165 166 165 163 159 159 157 160 160 158 151 133 127 130 154 151 167 193 195 189 231 196 190 207 199 205 190 139 215 240 160 253 154 120 164 103 134 140 138 141 144 141 138 140 143 146 148 145 153 149 147 134 122
170 167 165 166 161 164 165 162 164 166 150 137 109 145 152 166 195 160 195 262 214 229 172 163 94 161 178 191 109 141 256 230 335 81 164 133 136 149 150 156 153 159 168 158 145 143 143 143 131 117 124 122 124 127
172 170 171 163 159 166 166 167 170 169 160 171 147 153 202 209 246 190 185 190 124 138 138 137 100 113 84 62 237 267 257 274 281 184 200 167 155 161 166 168 168 160 165 162 156 151 143 135 133 128 126 119 120 124
170 161 152 153 158 161 164 171 169 168 177 153 214 231 208 201 132 140 127 125 96 86 137 104 71 100 12 112 189 255 291 269 4 97 190 158 169 172 170 171 176 171 166 153 143 142 134 129 127 125 121 117 114 109
163 153 160 163 164 162 172 175 172 165 252 280 265 115 73 168 140 158 184 168 154 168 110 86 147 152 218 186 181 224 273 262 231 156 154 164 167 173 175 181 176 158 148 139 136 132 127 123 118 110 105 105 103 90
161 150 159 165 170 169 172 167 148 189 233 280 219 213 134 147 136 182 204 191 176 185 185 163 206 213 169 63 230 110 224 223 146 148 164 176 179 181 181 171 160 155 151 145 137 132 128 121 113 95 93 102 111 83
149 149 151 151 155 161 158 155 171 190 237 228 221 192 178 171 187 173 187 177 171 196 204 251 321 154 174 176 224 180 134 149 159 167 170 174 177 176 175 165 160 156 150 142 141 140 139 138 142 108 87 72 59 3
154 155 158 161 164 146 146 187 195 210 220 211 200 171 176 215 217 227 198 204 217 243 303 286 90 206 193 183 164 172 175 174 167 169 171 174 181 175 167 165 160 157 154 151 150 149 137 124 112 168 198 280 305 312
161 158 159 160 159 140 145 166 185 188 181 191 176 173 174 190 212 227 224 216 225 229 252 227 215 190 184 201 212 211 192 189 177 162 168 182 184 174 171 170 164 158 158 159 168 158 151 177 219 257 277 290 296 282
156 161 165 170 167 167 185 158 167 178 140 150 158 157 127 246 225 203 212 202 205 227 232 211 199 192 199 226 198 191 187 189 195 204 188 173 174 174 171 166 165 166 170 168 182 202 221 245 255 265 290 310 307 296
152 168 167 193 234 276 206 162 175 142 132 150 160 188 185 191 203 223 195 204 230 218 212 204 206 212 202 192 181 180 180 178 190 194 186 178 171 174 171 169 172 175 176 186 202 221 241 261 272 285 294 301 296 299
154 157 142 165 227 216 195 153 156 163 125 169 166 215 186 187 210 176 246 230 239 224 225 209 202 204 200 177 176 185 187 182 178 178 179 179 172 166 163 168 180 191 213 204 223 247 254 266 274 285 293 294 289 293
155 157 164 209 199 184 170 184 159 137 115 165 193 213 178 175 167 226 248 235 203 194 199 201 192 178 179 191 193 192 191 198 181 166 166 161 163 171 174 188 205 212 219 233 242 250 258 272 282 286 306 306 298 301
171 202 208 175 135 134 164 164 165 98 187 196 189 177 195 161 174 232 235 213 188 189 199 198 198 206 195 186 184 182 178 184 178 164 167 173 175 178 187 199 206 218 230 237 243 256 267 270 285 298 300 302 299 292
243 193 171 173 159 186 171 168 189 184 157 157 184 141 162 142 238 239 243 190 191 200 206 206 200 191 199 201 183 181 182 183 177 175 176 189 199 209 208 210 218 223 236 245 252 262 267 278 285 288 293 297 296 298
203 221 189 183 180 168 145 178 172 143 163 176 166 162 174 226 240 238 166 190 205 217 225 223 212 211 194 184 187 182 179 183 193 192 194 193 202 212 223 220 229 239 231 249 271 274 272 274 278 287 298 307 309 308
193 176 163 174 161 164 149 166 161 192 185 181 149 175 192 205 230 180 189 202 201 198 198 197 204 202 203 196 193 191 187 190 197 201 197 197 205 214 221 224 233 242 256 272 281 280 272 267 275 287 293 296 298 306
173 154 140 120 129 186 208 200 208 202 193 184 161 216 217 195 191 186 184 184 199 205 201 196 193 201 194 190 193 201 208 201 197 196 206 211 210 209 214 219 232 245 257 267 263 258 267 287 298 301 306 317 324 323
161 173 123 146 157 215 197 203 193 187 188 191 188 169 183 198 197 200 201 199 199 212 216 207 200 191 190 190 188 188 194 200 209 222 230 225 219 217 212 214 223 230 226 221 213 251 294 318 325 325 327 330 327 322
161 166 134 153 175 198 193 190 192 201 204 207 217 231 214 216 227 221 206 204 203 199 200 195 194 196 197 197 202 204 203 205 206 209 207 197 186 185 192 197 195 192 185 191 298 332 336 340 332 326 327 326 324 325
168 181 160 123 163 163 170 193 205 204 203 209 213 211 199 209 235 219 212 202 201 203 205 208 203 199 203 213 217 211 206 205 201 199 196 195 189 179 174 172 170 165 169 177 314 334 333 331 332 332 332 331 331 331
145 110 107 113 131 178 178 170 195 201 198 220 233 222 211 209 240 214 203 198 207 208 209 211 212 213 210 202 198 197 194 192 192 185 184 181 177 169 166 161 159 157 152 90 0 343 343 343 340 339 337 336 337 338
Height
1372 1378 1384 1388 1394 1399 1403 1407 1410 1413 1416 1419 1421 1423 1425 1428 1429 1430 1431 1432 1433 1437 1441 1442 1443 1444 1447 1449 1456 1454 1457 1456 1458 1464 1465 1470 1469 1456 1450 1445 1437 1435 1432 1433 1432 1434 1434 1441 1431 1429 1440 1440 1441 1439
1372 1378 1383 1389 1394 1399 1403 1408 1411 1414 1417 1420 1423 1425 1427 1429 1431 1432 1432 1433 1435 1438 1442 1443 1445 1447 1449 1450 1452 1454 1457 1458 1460 1465 1466 1465 1463 1458 1451 1440 1441 1439 1443 1438 1442 1448 1452 1450 1449 1446 1444 1443 1444 1443
1372 1378 1383 1389 1394 1399 1405 1408 1411 1414 1418 1421 1424 1427 1428 1431 1433 1433 1433 1435 1437 1440 1443 1445 1447 1449 1449 1450 1451 1454 1457 1458 1460 1461 1462 1464 1465 1458 1454 1449 1447 1447 1447 1445 1447 1454 1453 1451 1450 1449 1449 1448 1447 1447
1373 1378 1383 1388 1394 1399 1404 1408 1411 1415 1419 1423 1426 1428 1429 1432 1434 1436 1436 1437 1439 1441 1445 1449 1448 1449 1450 1451 1452 1454 1456 1458 1459 1460 1460 1463 1464 1456 1456 1453 1456 1457 1453 1452 1454 1456 1456 1456 1455 1454 1453 1451 1449 1449
1371 1377 1383 1388 1394 1400 1404 1408 1412 1416 1420 1424 1427 1429 1432 1434 1435 1438 1439 1440 1441 1444 1446 1447 1448 1449 1450 1452 1453 1455 1456 1458 1459 1459 1461 1463 1457 1456 1455 1457 1458 1459 1459 1457 1459 1457 1457 1459 1458 1456 1455 1454 1455 1453
1370 1377 1382 1388 1394 1400 1404 1409 1413 1417 1422 1425 1428 1431 1433 1435 1437 1439 1441 1443 1443 1444 1446 1449 1449 1448 1450 1452 1453 1455 1456 1458 1459 1459 1459 1457 1454 1454 1458 1462 1462 1460 1459 1458 1460 1459 1458 1459 1460 1460 1459 1460 1460 1459
1371 1377 1383 1389 1395 1400 1405 1410 1414 1419 1423 1427 1430 1432 1434 1436 1438 1440 1443 1444 1445 1446 1447 1450 1448 1448 1450 1452 1453 1455 1456 1457 1459 1459 1458 1456 1452 1452 1456 1457 1461 1461 1461 1460 1460 1460 1460 1460 1461 1462 1463 1462 1461 1461
1374 1379 1385 1390 1396 1402 1407 1411 1416 1420 1425 1428 1431 1434 1436 1438 1441 1443 1444 1445 1447 1447 1449 1453 1451 1449 1449 1450 1452 1453 1455 1457 1457 1457 1456 1453 1450 1449 1455 1459 1461 1463 1462 1462 1461 1460 1461 1462 1463 1465 1465 1465 1465 1464
1376 1381 1386 1392 1398 1403 1407 1411 1417 1422 1426 1430 1433 1435 1437 1440 1442 1444 1446 1447 1448 1451 1450 1451 1455 1458 1449 1450 1451 1453 1454 1458 1455 1454 1452 1451 1451 1453 1454 1457 1460 1461 1463 1464 1464 1464 1464 1465 1466 1467 1467 1467 1466 1466
1378 1383 1388 1393 1399 1404 1408 1413 1418 1423 1427 1431 1434 1436 1438 1441 1443 1445 1447 1448 1448 1449 1450 1450 1449 1449 1449 1449 1451 1453 1452 1454 1455 1447 1445 1449 1454 1455 1456 1456 1458 1461 1462 1463 1464 1465 1465 1467 1467 1468 1468 1468 1468 1467
1381 1386 1390 1395 1400 1406 1410 1415 1420 1425 1428 1432 1434 1437 1440 1442 1445 1446 1448 1449 1450 1449 1448 1445 1445 1446 1447 1450 1451 1449 1451 1448 1445 1443 1444 1448 1450 1454 1456 1457 1459 1461 1462 1462 1462 1463 1464 1465 1467 1467 1468 1468 1469 1469
1382 1387 1391 1396 1402 1408 1413 1417 1421 1426 1429 1432 1434 1438 1442 1443 1445 1447 1447 1447 1447 1444 1441 1441 1441 1443 1445 1445 1446 1447 1446 1445 1440 1440 1444 1452 1454 1454 1456 1458 1460 1462 1462 1463 1464 1464 1465 1466 1467 1467 1467 1468 1468 1469
1383 1388 1392 1398 1404 1410 1415 1420 1424 1428 1430 1434 1436 1438 1440 1443 1443 1446 1452 1445 1447 1437 1437 1438 1440 1442 1444 1444 1445 1446 1441 1443 1440 1444 1444 1452 1453 1455 1457 1459 1460 1462 1463 1463 1464 1464 1465 1465 1466 1467 1467 1468 1469 1470
1384 1388 1392 1399 1406 1412 1418 1422 1426 1430 1433 1434 1435 1438 1439 1443 1441 1438 1438 1437 1436 1435 1436 1437 1439 1441 1442 1444 1446 1445 1444 1441 1442 1443 1444 1451 1452 1455 1457 1459 1460 1461 1462 1463 1463 1464 1465 1466 1466 1468 1469 1469 1470 1471
1386 1390 1396 1404 1409 1415 1420 1424 1428 1432 1433 1434 1435 1437 1436 1432 1433 1434 1435 1436 1437 1437 1437 1438 1440 1442 1444 1446 1446 1445 1443 1439 1437 1441 1448 1449 1452 1454 1457 1459 1460 1460 1461 1462 1463 1464 1466 1467 1468 1469 1470 1471 1472 1473
1388 1394 1400 1406 1412 1418 1422 1427 1430 1433 1434 1434 1432 1432 1431 1432 1434 1435 1436 1437 1438 1438 1439 1440 1441 1443 1443 1444 1442 1442 1438 1437 1447 1446 1447 1449 1452 1455 1457 1458 1460 1461 1462 1463 1465 1467 1468 1470 1471 1472 1473 1474 1474 1475
1390 1393 1401 1408 1414 1420 1425 1430 1433 1435 1435 1433 1432 1432 1433 1432 1433 1434 1436 1437 1438 1439 1440 1440 1440 1438 1439 1442 1441 1442 1440 1445 1443 1444 1446 1449 1452 1454 1456 1458 1460 1461 1463 1465 1467 1469 1470 1471 1473 1474 1474 1475 1475 1475
1395 1400 1405 1410 1415 1421 1427 1431 1433 1434 1433 1432 1432 1432 1432 1433 1434 1434 1436 1437 1439 1439 1440 1439 1437 1437 1446 1441 1441 1441 1441 1443 1444 1445 1447 1449 1452 1454 1456 1458 1460 1463 1465 1467 1469 1470 1472 1473 1474 1474 1475 1475 1475 1475
1398 1403 1409 1414 1419 1424 1428 1432 1432 1431 1431 1431 1431 1432 1433 1433 1434 1434 1435 1437 1438 1438 1438 1437 1438 1439 1435 1435 1435 1437 1438 1440 1442 1445 1447 1450 1452 1454 1456 1459 1462 1464 1466 1468 1470 1472 1472 1473 1473 1474 1474 1474 1473 1473
1403 1408 1413 1418 1422 1424 1426 1428 1429 1429 1429 1430 1431 1431 1432 1432 1433 1434 1435 1436 1437 1438 1437 1436 1433 1432 1432 1433 1434 1435 1437 1439 1441 1444 1447 1449 1452 1454 1457 1459 1462 1465 1467 1469 1471 1472 1473 1474 1474 1474 1474 1474 1473 1472
1409 1413 1417 1420 1423 1424 1424 1425 1426 1427 1428 1429 1430 1431 1432 1432 1432 1433 1433 1434 1436 1434 1432 1430 1430 1431 1432 1433 1434 1435 1436 1438 1439 1441 1442 1446 1451 1455 1458 1461 1463 1466 1468 1469 1471 1472 1473 1474 1474 1474 1473 1472 1470 1469
1409 1414 1419 1422 1423 1424 1424 1424 1425 1426 1429 1429 1431 1431 1432 1432 1432 1432 1432 1433 1431 1428 1428 1428 1429 1430 1431 1432 1433 1435 1436 1438 1440 1442 1444 1447 1450 1453 1457 1460 1463 1465 1467 1469 1471 1471 1472 1472 1472 1472 1471 1469 1468 1467
1412 1418 1421 1423 1424 1423 1425 1424 1425 1426 1428 1430 1431 1430 1430 1431 1431 1432 1431 1428 1425 1424 1425 1426 1427 1429 1430 1432 1434 1435 1436 1438 1440 1442 1444 1447 1451 1455 1458 1461 1463 1465 1466 1468 1469 1470 1470 1471 1470 1469 1468 1466 1465 1464
1415 1419 1420 1421 1420 1422 1423 1422 1423 1424 1426 1428 1429 1428 1429 1429 1430 1431 1429 1421 1419 1420 1422 1423 1425 1427 1430 1432 1433 1434 1436 1439 1441 1443 1446 1449 1452 1456 1458 1460 1462 1464 1465 1466 1467 1468 1468 1468 1467 1466 1465 1464 1463 1462
1417 1418 1417 1415 1417 1420 1421 1421 1422 1424 1425 1425 1426 1427 1427 1428 1430 1427 1422 1417 1417 1419 1421 1423 1424 1426 1428 1430 1433 1435 1438 1439 1441 1444 1447 1451 1453 1455 1458 1459 1461 1462 1463 1464 1464 1465 1465 1464 1464 1463 1462 1461 1460 1459
1410 1410 1411 1410 1414 1415 1417 1418 1420 1420 1421 1423 1423 1423 1425 1426 1426 1421 1416 1415 1416 1417 1419 1421 1423 1426 1428 1430 1432 1435 1438 1440 1443 1445 1447 1450 1452 1454 1456 1457 1459 1460 1461 1461 1462 1462 1462 1461 1461 1460 1459 1458 1457 1456
1408 1407 1406 1407 1409 1410 1413 1413 1414 1416 1418 1419 1420 1423 1423 1424 1419 1415 1415 1414 1415 1417 1418 1420 1423 1425 1426 1429 1432 1435 1438 1441 1443 1446 1448 1450 1452 1454 1455 1456 1457 1459 1459 1459 1459 1459 1459 1459 1458 1457 1456 1455 1454 1453
1401 1401 1404 1406 1407 1408 1410 1411 1413 1412 1412 1413 1415 1419 1422 1419 1414 1412 1413 1414 1414 1416 1417 1419 1422 1424 1427 1430 1432 1434 1437 1440 1442 1445 1447 1449 1451 1452 1454 1455 1456 1457 1457 1457 1457 1456 1456 1456 1456 1455 1454 1453 1452 1450
1398 1398 1401 1404 1406 1407 1407 1407 1407 1407 1408 1408 1410 1412 1410 1409 1410 1410 1412 1413 1414 1416 1417 1419 1421 1423 1426 1429 1432 1434 1436 1438 1440 1442 1445 1447 1448 1450 1451 1453 1454 1455 1455 1455 1455 1455 1455 1455 1454 1453 1452 1451 1450 1448
1394 1396 1398 1400 1403 1404 1402 1403 1403 1404 1405 1406 1406 1407 1408 1408 1409 1410 1411 1412 1413 1415 1417 1418 1420 1422 1424 1427 1429 1432 1435 1438 1440 1443 1444 1445 1447 1449 1450 1451 1452 1453 1454 1454 1454 1454 1454 1453 1452 1451 1450 1449 1447 1446
1392 1394 1396 1398 1400 1400 1401 1402 1403 1403 1404 1404 1405 1406 1407 1407 1407 1408 1409 1410 1411 1413 1415 1417 1419 1421 1423 1426 1428 1430 1433 1436 1438 1441 1443 1444 1446 1447 1448 1449 1451 1452 1453 1453 1453 1453 1452 1452 1451 1450 1449 1447 1445 1442
1391 1392 1393 1398 1400 1400 1401 1402 1402 1402 1403 1403 1404 1404 1405 1406 1406 1405 1404 1406 1408 1410 1413 1416 1418 1420 1423 1426 1428 1430 1433 1435 1437 1440 1442 1443 1445 1446 1447 1448 1450 1451 1452 1452 1452 1452 1451 1451 1450 1448 1446 1444 1442 1439
1391 1391 1392 1395 1398 1399 1400 1401 1402 1402 1403 1402 1401 1401 1401 1403 1401 1400 1400 1402 1405 1408 1411 1414 1417 1420 1422 1424 1427 1430 1432 1435 1437 1440 1441 1443 1445 1446 1447 1448 1450 1450 1451 1451 1451 1451 1450 1449 1447 1446 1444 1441 1439 1436